Current Weather Conditions: station FHPF1

sailwx.info

Wind from 290 at 18 knots gusting 20

Air temperature 18.0° C

Last reported at 2019-Mar-22 04:54 UTC.
Time now 2019-Mar-22 06:02 UTC

Location: N 28°09' W 082°48'.
View on Google Maps.

See reports from other nearby stations

  
Tides and Currents Weather Stations Pressure Air Temp Water Temp Dewpoint Dewpoint Depression Visibility Wind Speed Wind Dir Waves Ship Positions
date/time (UTC)wind fromknots sea level pressurealtimeterstation pressurevisibilityair tempwater tempwave heightnotes
2019-Mar-22 04:54 290 18 gusting 20 18.0
2019-Mar-22 04:48 290 17 gusting 20 18.0
2019-Mar-22 03:54 280 14 gusting 17 17.8
2019-Mar-22 03:48 300 14 gusting 18 17.8
2019-Mar-22 03:42 300 14 gusting 18 17.8
2019-Mar-22 03:36 300 14 gusting 18 17.8
2019-Mar-22 02:54 280 15 gusting 20 17.9
2019-Mar-22 02:48 270 15 gusting 19 17.9
2019-Mar-22 02:42 290 14 gusting 18 18.0
2019-Mar-22 02:36 280 14 gusting 18 18.0
2019-Mar-22 02:30 290 15 gusting 18 18.0
2019-Mar-22 02:24 280 14 gusting 20 18.1
2019-Mar-22 02:18 290 13 gusting 17 18.1
2019-Mar-22 02:12 280 14 gusting 19 18.0
2019-Mar-22 02:06 290 14 gusting 18 18.0
2019-Mar-22 02:00 290 14 gusting 19 18.0
2019-Mar-22 01:54 290 14 gusting 19 18.0
2019-Mar-22 01:48 280 13 gusting 18 18.0
2019-Mar-22 00:54 280 13 gusting 18 18.4
2019-Mar-22 00:48 290 13 gusting 18 18.5
2019-Mar-21 23:54 280 14 gusting 19 19.2
2019-Mar-21 23:48 280 14 gusting 18 19.2
2019-Mar-21 23:42 280 13 gusting 19 19.3
2019-Mar-21 23:36 290 13 gusting 18 19.4
2019-Mar-21 23:30 280 13 gusting 19 19.3
2019-Mar-21 23:24 280 13 gusting 17 19.2
2019-Mar-21 23:18 280 13 gusting 18 19.3
2019-Mar-21 23:12 270 13 gusting 18 19.3
2019-Mar-21 23:06 280 11 gusting 13 19.4
2019-Mar-21 23:00 280 13 gusting 18 19.4
2019-Mar-21 22:54 280 11 gusting 13 19.4
2019-Mar-21 22:48 280 12 gusting 17 19.2
2019-Mar-21 22:42 280 12 gusting 17 19.3
2019-Mar-21 22:36 280 11 gusting 13 19.4
2019-Mar-21 22:30 280 11 gusting 13 19.5
2019-Mar-21 22:24 290 11 gusting 14 19.4
2019-Mar-21 22:18 280 11 gusting 14 19.6
2019-Mar-21 22:12 290 12 gusting 13 19.6
2019-Mar-21 22:06 280 9 gusting 13 19.7
2019-Mar-21 22:00 280 9 gusting 13 19.6
2019-Mar-21 21:54 280 9 gusting 13 19.4
2019-Mar-21 21:48 280 9 gusting 13 19.4
2019-Mar-21 21:42 290 9 gusting 11 19.5
2019-Mar-21 21:36 280 9 gusting 13 19.5
2019-Mar-21 21:30 290 9 gusting 13 19.6
2019-Mar-21 21:24 290 8 gusting 13 19.7
2019-Mar-21 21:18 290 9 gusting 13 19.5
2019-Mar-21 21:12 290 11 gusting 13 19.6
2019-Mar-21 21:06 290 9 gusting 13 19.5
2019-Mar-21 21:00 290 9 gusting 13 19.6
2019-Mar-21 20:54 290 9 gusting 13 19.5
2019-Mar-21 20:48 290 9 gusting 13 19.4
2019-Mar-21 20:42 290 9 gusting 13 19.7
2019-Mar-21 20:36 290 9 gusting 13 19.5
2019-Mar-21 20:30 300 8 gusting 12 19.6
2019-Mar-21 20:24 290 9 gusting 13 19.3
2019-Mar-21 20:18 300 11 gusting 13 19.5
2019-Mar-21 20:12 290 8 gusting 13 19.6
2019-Mar-21 20:06 300 8 gusting 11 19.9
2019-Mar-21 20:00 290 8 gusting 13 19.6
2019-Mar-21 19:54 300 9 gusting 13 19.6
2019-Mar-21 19:48 290 9 gusting 13 19.4
2019-Mar-21 18:54 310 8 gusting 9 19.7
2019-Mar-21 18:48 300 7 gusting 11 19.9
2019-Mar-21 18:42 300 8 gusting 12 19.7
2019-Mar-21 18:36 310 8 gusting 11 19.6
2019-Mar-21 18:30 310 7 gusting 11 19.5
2019-Mar-21 18:24 320 8 gusting 11 18.9
2019-Mar-21 18:18 320 8 gusting 11 19.2
2019-Mar-21 18:12 320 9 gusting 12 19.1
2019-Mar-21 18:06 320 11 gusting 13 18.9
2019-Mar-21 18:00 320 9 gusting 12 19.2
2019-Mar-21 17:54 310 8 gusting 13 19.2
2019-Mar-21 17:48 320 9 gusting 13 18.8
2019-Mar-21 16:54 310 8 gusting 11 18.9
2019-Mar-21 16:48 320 7 gusting 11 18.9
2019-Mar-21 16:42 320 8 gusting 11 18.8
2019-Mar-21 16:36 330 8 gusting 11 18.5
2019-Mar-21 16:30 320 8 gusting 11 18.6
2019-Mar-21 16:24 320 7 gusting 11 18.8
2019-Mar-21 16:18 320 7 gusting 9 19.0
2019-Mar-21 16:12 320 6 gusting 9 19.0
2019-Mar-21 16:06 320 7 gusting 9 19.0
2019-Mar-21 16:00 320 8 gusting 12 18.6
2019-Mar-21 15:54 350 1 gusting 8 18.1
2019-Mar-21 15:48 18.3
2019-Mar-21 14:54 020 4 gusting 6 17.6
2019-Mar-21 14:48 020 5 gusting 7 17.7
2019-Mar-21 13:54 020 6 gusting 7 17.3
2019-Mar-21 13:48 020 6 gusting 8 17.3
2019-Mar-21 12:54 010 11 gusting 12 17.0
2019-Mar-21 12:48 360 11 gusting 13 17.0
2019-Mar-21 12:42 360 11 gusting 13 17.0
2019-Mar-21 12:36 010 11 gusting 13 17.0
2019-Mar-21 12:30 360 12 gusting 13 17.1
2019-Mar-21 12:24 360 12 gusting 14 17.0
2019-Mar-21 12:18 360 11 gusting 13 17.1
2019-Mar-21 12:12 350 11 gusting 13 17.2
2019-Mar-21 12:06 360 11 gusting 14 17.2
2019-Mar-21 12:00 360 11 gusting 13 17.3
2019-Mar-21 11:54 350 9 gusting 12 17.3
2019-Mar-21 11:48 360 11 gusting 12 17.4
2019-Mar-21 11:42 360 11 gusting 13 17.4
2019-Mar-21 11:36 360 11 gusting 12 17.4
2019-Mar-21 11:30 350 11 gusting 13 17.5
2019-Mar-21 11:24 350 11 gusting 13 17.4
2019-Mar-21 11:18 350 9 gusting 12 17.4
2019-Mar-21 11:12 350 11 gusting 13 17.4
2019-Mar-21 11:06 350 11 gusting 13 17.5
2019-Mar-21 11:00 340 9 gusting 12 17.6
2019-Mar-21 10:54 350 11 gusting 12 17.6
2019-Mar-21 10:48 350 11 gusting 12 17.6
2019-Mar-21 10:42 350 11 gusting 12 17.7
2019-Mar-21 10:36 350 11 gusting 12 17.7
2019-Mar-21 10:30 360 11 gusting 13 17.7
2019-Mar-21 10:24 360 11 gusting 13 17.8
2019-Mar-21 10:18 360 11 gusting 13 17.8
2019-Mar-21 10:12 360 11 gusting 13 17.8
2019-Mar-21 10:06 360 9 gusting 12 17.8
2019-Mar-21 10:00 360 11 gusting 13 17.8
2019-Mar-21 09:54 360 11 gusting 13 17.9
2019-Mar-21 09:48 360 11 gusting 13 17.9
2019-Mar-21 09:42 360 9 gusting 12 17.9
2019-Mar-21 09:36 010 11 gusting 13 18.0
2019-Mar-21 09:30 010 9 gusting 13 18.0
2019-Mar-21 09:24 010 9 gusting 11 17.9
2019-Mar-21 09:18 010 9 gusting 12 17.9
2019-Mar-21 09:12 010 8 gusting 11 17.8
2019-Mar-21 09:06 010 8 gusting 11 17.9
2019-Mar-21 09:00 010 8 gusting 12 17.9
2019-Mar-21 08:54 010 8 gusting 9 18.0
2019-Mar-21 08:48 010 7 gusting 9 18.0
2019-Mar-21 08:42 010 7 gusting 8 18.0
2019-Mar-21 08:36 010 8 gusting 11 18.0
2019-Mar-21 08:30 010 8 gusting 11 18.0
2019-Mar-21 08:24 360 9 gusting 11 18.1
2019-Mar-21 08:18 010 8 gusting 11 18.1
2019-Mar-21 08:12 360 9 gusting 11 18.2
2019-Mar-21 08:06 010 8 gusting 11 18.2
2019-Mar-21 08:00 010 8 gusting 11 18.3
2019-Mar-21 07:54 010 7 gusting 9 18.3
2019-Mar-21 07:48 010 8 gusting 9 18.4
2019-Mar-21 07:42 010 8 gusting 9 18.4
2019-Mar-21 07:36 360 8 gusting 9 18.4
2019-Mar-21 07:30 360 9 gusting 11 18.4
2019-Mar-21 07:24 350 8 gusting 12 18.4
2019-Mar-21 07:18 360 9 gusting 11 18.4
2019-Mar-21 07:12 360 9 gusting 11 18.4
2019-Mar-21 07:06 360 8 gusting 11 18.5
2019-Mar-21 07:00 010 8 gusting 11 18.5
2019-Mar-21 06:54 010 8 gusting 13 18.6
2019-Mar-21 06:48 360 8 gusting 9 18.6
2019-Mar-21 06:42 360 8 gusting 9 18.6
2019-Mar-21 06:36 360 8 gusting 9 18.6
2019-Mar-21 06:30 360 7 gusting 9 18.6
2019-Mar-21 06:24 360 7 gusting 11 18.6
2019-Mar-21 06:18 360 7 gusting 9 18.6
2019-Mar-21 06:12 360 8 gusting 11 18.7
2019-Mar-21 06:06 360 8 gusting 11 18.6
2019-Mar-21 06:00 360 8 gusting 11 18.6
2019-Mar-21 05:54 360 7 gusting 9 18.6
2019-Mar-21 05:48 010 7 gusting 8 18.5
2019-Mar-21 05:42 360 8 gusting 9 18.5
2019-Mar-21 05:36 010 7 gusting 9 18.5
2019-Mar-21 05:30 360 7 gusting 11 18.5
2019-Mar-21 05:24 010 7 gusting 9 18.5
2019-Mar-21 05:18 010 8 gusting 9 18.5
2019-Mar-21 05:12 010 7 gusting 8 18.5
2019-Mar-21 05:06 010 7 gusting 8 18.6
2019-Mar-21 05:00 010 6 gusting 8 18.6
2019-Mar-21 04:54 010 7 gusting 8 18.7
2019-Mar-21 04:48 010 7 gusting 9 18.7
2019-Mar-21 03:54 020 6 gusting 8 18.8
2019-Mar-21 03:48 020 6 gusting 8 18.8
2019-Mar-21 03:42 020 7 gusting 9 18.8
2019-Mar-21 03:36 010 8 gusting 11 18.8
2019-Mar-21 03:30 010 9 gusting 11 18.8
2019-Mar-21 03:24 010 9 gusting 11 18.8
2019-Mar-21 03:18 360 9 gusting 11 18.9
2019-Mar-21 03:12 010 9 gusting 11 18.9
2019-Mar-21 03:06 010 11 gusting 12 18.9
2019-Mar-21 03:00 010 9 gusting 12 18.9
2019-Mar-21 02:54 010 9 gusting 12 18.9
2019-Mar-21 02:48 010 9 gusting 13 18.9
2019-Mar-21 01:54 360 11 gusting 12 18.7
2019-Mar-21 01:48 360 12 gusting 14 18.7
2019-Mar-21 01:42 360 13 gusting 14 18.8
2019-Mar-21 01:36 360 13 gusting 15 18.8
2019-Mar-21 01:30 360 13 gusting 14 18.8
2019-Mar-21 01:24 360 12 gusting 15 18.8
2019-Mar-21 01:18 360 13 gusting 14 18.8
2019-Mar-21 01:12 360 13 gusting 14 18.9
2019-Mar-21 01:06 360 13 gusting 15 19.0
2019-Mar-21 01:00 350 13 gusting 15 18.9
2019-Mar-21 00:54 360 13 gusting 15 18.9
2019-Mar-21 00:48 360 13 gusting 14 19.0
2019-Mar-20 23:54 360 13 gusting 17 18.9
2019-Mar-20 23:48 350 13 gusting 14 18.9
2019-Mar-20 23:42 350 13 gusting 17 18.9
2019-Mar-20 23:36 360 13 gusting 17 18.9
2019-Mar-20 23:30 360 13 gusting 15 19.0
2019-Mar-20 23:24 360 13 gusting 15 18.9
2019-Mar-20 23:18 360 13 gusting 15 19.0
2019-Mar-20 23:12 360 13 gusting 18 19.0
2019-Mar-20 23:06 360 13 gusting 15 19.1
2019-Mar-20 23:00 360 13 gusting 18 19.2
2019-Mar-20 22:54 360 13 gusting 14 19.2
2019-Mar-20 22:48 360 13 gusting 15 19.2
2019-Mar-20 22:42 360 14 gusting 17 19.3
2019-Mar-20 22:36 360 13 gusting 17 19.4
2019-Mar-20 22:30 360 13 gusting 18 19.5
2019-Mar-20 22:24 360 13 gusting 15 19.4
2019-Mar-20 22:18 360 13 gusting 17 19.5
2019-Mar-20 22:12 360 13 gusting 14 19.4
2019-Mar-20 22:06 360 13 gusting 17 19.3
2019-Mar-20 22:00 360 13 gusting 15 19.3
2019-Mar-20 21:54 360 13 gusting 15 19.2
2019-Mar-20 21:48 360 13 gusting 17 19.2
2019-Mar-20 20:54 360 14 gusting 18 19.1
2019-Mar-20 20:48 360 14 gusting 18 19.2
2019-Mar-20 19:54 360 14 gusting 18 18.8
2019-Mar-20 19:48 360 13 gusting 17 18.6
2019-Mar-20 18:54 010 14 gusting 18 18.3
2019-Mar-20 18:48 010 13 gusting 18 18.3
2019-Mar-20 17:54 360 14 gusting 19 17.9
2019-Mar-20 17:48 360 15 gusting 20 17.7
2019-Mar-20 16:54 010 12 gusting 13 17.9
2019-Mar-20 16:48 010 11 gusting 13 17.8
2019-Mar-20 16:42 010 11 gusting 13 17.8
2019-Mar-20 16:36 010 11 gusting 13 17.8
2019-Mar-20 16:30 010 12 gusting 13 17.7
2019-Mar-20 16:24 010 12 gusting 13 17.6
2019-Mar-20 16:18 010 12 gusting 13 17.8
2019-Mar-20 16:12 010 11 gusting 13 17.7
2019-Mar-20 16:06 010 9 gusting 11 17.8
2019-Mar-20 16:00 010 8 gusting 11 17.5
2019-Mar-20 15:54 010 11 gusting 13 17.3
2019-Mar-20 15:48 010 9 gusting 12 17.5
2019-Mar-20 15:42 010 11 gusting 13 17.6
2019-Mar-20 15:36 010 9 gusting 11 17.5
2019-Mar-20 15:30 020 8 gusting 12 17.9
2019-Mar-20 15:24 040 6 gusting 9 18.2
2019-Mar-20 15:18 020 6 gusting 11 18.0
2019-Mar-20 15:12 040 7 gusting 11 18.0
2019-Mar-20 15:06 040 7 gusting 11 17.8
2019-Mar-20 15:00 030 7 gusting 11 17.6
2019-Mar-20 14:54 040 7 gusting 11 17.5
2019-Mar-20 14:48 030 8 gusting 11 17.5
2019-Mar-20 13:54 040 8 gusting 13 16.1
2019-Mar-20 13:48 040 7 gusting 11 16.1
2019-Mar-20 13:42 040 6 gusting 9 16.0
2019-Mar-20 13:36 040 7 gusting 11 15.9
2019-Mar-20 13:30 040 8 gusting 13 15.8
2019-Mar-20 13:24 040 8 gusting 12 15.7
2019-Mar-20 13:18 030 8 gusting 12 15.6
2019-Mar-20 13:12 040 8 gusting 11 15.5
2019-Mar-20 13:06 040 9 gusting 13 15.4
2019-Mar-20 13:00 040 9 gusting 13 15.4
2019-Mar-20 12:54 040 7 gusting 12 15.3
2019-Mar-20 12:48 040 8 gusting 12 15.2
2019-Mar-20 11:54 040 8 gusting 12 14.7
2019-Mar-20 11:48 040 7 gusting 11 14.7
2019-Mar-20 10:54 040 11 gusting 13 15.0
2019-Mar-20 10:48 040 9 gusting 13 15.0
2019-Mar-20 10:42 040 8 gusting 12 15.0
2019-Mar-20 10:36 040 11 gusting 14 15.0
2019-Mar-20 10:30 050 11 gusting 13 15.0
2019-Mar-20 10:24 050 11 gusting 13 15.0
2019-Mar-20 10:18 050 11 gusting 13 15.1
2019-Mar-20 10:12 050 11 gusting 13 15.1
2019-Mar-20 10:06 040 12 gusting 15 15.2
2019-Mar-20 10:00 050 12 gusting 15 15.1
2019-Mar-20 09:54 050 12 gusting 18 15.2
2019-Mar-20 09:48 050 13 gusting 19 15.2
2019-Mar-20 09:42 050 12 gusting 15 15.2
2019-Mar-20 09:36 050 11 gusting 14 15.2
2019-Mar-20 09:30 050 9 gusting 13 15.1
2019-Mar-20 09:24 050 11 gusting 13 15.1
2019-Mar-20 09:18 040 8 gusting 12 15.1
2019-Mar-20 09:12 040 9 gusting 14 15.2
2019-Mar-20 09:06 040 13 gusting 15 15.2
2019-Mar-20 09:00 040 11 gusting 14 15.2
2019-Mar-20 08:54 040 9 gusting 13 15.2
2019-Mar-20 08:48 040 11 gusting 13 15.2
2019-Mar-20 08:42 040 9 gusting 13 15.1
2019-Mar-20 08:36 040 8 gusting 13 15.1
2019-Mar-20 07:54 040 8 gusting 13 15.4
2019-Mar-20 07:48 040 11 gusting 13 15.4
2019-Mar-20 07:42 040 9 gusting 13 15.4
2019-Mar-20 07:36 050 11 gusting 14 15.4
2019-Mar-20 07:30 040 11 gusting 15 15.4
2019-Mar-20 07:24 040 11 gusting 13 15.4
2019-Mar-20 07:18 040 12 gusting 14 15.4
2019-Mar-20 07:12 050 11 gusting 14 15.4
2019-Mar-20 07:06 040 9 gusting 12 15.5
2019-Mar-20 07:00 040 11 gusting 15 15.5
2019-Mar-20 06:54 040 12 gusting 19 15.5
2019-Mar-20 06:48 040 12 gusting 14 15.5
2019-Mar-20 06:42 040 13 gusting 15 15.5
2019-Mar-20 06:36 040 13 gusting 15 15.4
2019-Mar-20 06:30 040 12 gusting 17 15.4
2019-Mar-20 06:24 050 12 gusting 18 15.4
2019-Mar-20 06:18 040 13 gusting 19 15.4
2019-Mar-20 06:12 040 13 gusting 19 15.3
2019-Mar-20 06:06 050 13 gusting 17 15.4
2019-Mar-20 06:00 040 14 gusting 19 15.4